Location: Bolesławiec
(51.2625°N, 15.5642°E)
Time: 05:33:59
(UTC+02:00)

ISS - Visible Passes

Search period start: 26 September 2018 00:00
Search period end: 06 October 2018 00:00
Orbit: 403 x 408 km, 51.6° (Epoch: 26 September)

Date Brightness Start Highest point End Pass type
(mag) Time Alt. Az. Time Alt. Az. Time Alt. Az.
26 Sep -3.6 20:11:59 10° SW 20:15:12 52° SSE 20:16:23 32° E visible
26 Sep -0.9 21:48:21 10° W 21:49:04 16° W 21:49:04 16° W visible
27 Sep -3.0 19:20:19 10° SW 19:23:23 36° SSE 19:26:28 10° E visible
27 Sep -3.4 20:56:26 10° W 20:59:15 63° W 20:59:15 63° W visible
28 Sep -3.9 20:04:31 10° WSW 20:07:49 77° SSE 20:09:23 29° E visible
28 Sep -1.1 21:41:03 10° W 21:42:03 18° W 21:42:03 18° W visible
29 Sep -3.6 19:12:40 10° WSW 19:15:56 59° SSE 19:19:11 10° E visible
29 Sep -3.6 20:49:06 10° W 20:52:07 70° WNW 20:52:07 70° WNW visible
30 Sep -3.8 19:57:08 10° W 20:00:27 85° N 20:02:08 27° E visible
30 Sep -1.2 21:33:41 10° W 21:34:48 20° W 21:34:48 20° W visible
01 Oct -3.8 19:05:10 10° WSW 19:08:29 83° SSE 19:11:48 10° E visible
01 Oct -3.7 20:41:43 10° W 20:44:47 75° WNW 20:44:47 75° WNW visible
02 Oct -3.8 19:49:43 10° W 19:53:02 82° N 19:54:46 26° E visible
02 Oct -1.2 21:26:16 10° W 21:27:26 20° W 21:27:26 20° W visible
03 Oct -3.8 18:57:44 10° W 19:01:03 83° N 19:04:21 10° E visible
03 Oct -3.7 20:34:16 10° W 20:37:24 70° SW 20:37:24 70° SW visible
04 Oct -3.9 19:42:16 10° W 19:45:35 88° SSW 19:47:23 25° ESE visible
04 Oct -1.2 21:18:53 10° W 21:20:03 18° W 21:20:03 18° W visible
05 Oct -3.2 20:26:48 10° W 20:29:59 47° SSW 20:30:03 47° SSW visible
